Time,TemperatureF,DewpointF,PressureIn,WindDirection,WindDirectionDegrees,WindSpeedMPH,WindSpeedGustMPH,Humidity,HourlyPrecipIn,Conditions,Clouds,dailyrainin,SoftwareType,DateUTC
2013-09-01 00:01:00,75.2,71.4,29.91,WSW,242,8.1,11.0,88,0.00,,---,0.00,VWS V14.01,2013-09-01 04:01:00,
2013-09-01 00:02:00,75.2,71.4,29.91,SSE,165,8.3,12.3,88,0.00,,---,0.00,VWS V14.01,2013-09-01 04:02:00,
2013-09-01 00:03:00,75.2,71.4,29.91,SW,227,8.7,11.9,88,0.00,,---,0.00,VWS V14.01,2013-09-01 04:03:00,
2013-09-01 00:04:00,75.2,71.4,29.91,SW,226,11.0,11.0,88,0.00,,---,0.00,VWS V14.01,2013-09-01 04:04:00,
2013-09-01 00:06:00,75.2,71.4,29.91,SW,233,11.0,12.3,88,0.00,,---,0.00,VWS V14.01,2013-09-01 04:06:00,
2013-09-01 00:11:00,75.2,71.4,29.91,SSW,210,9.6,12.8,88,0.00,,---,0.00,VWS V14.01,2013-09-01 04:11:00,
2013-09-01 00:16:00,75.2,71.4,29.91,SW,231,8.3,10.5,88,0.00,,---,0.00,VWS V14.01,2013-09-01 04:16:00,
2013-09-01 00:22:00,75.2,71.7,29.91,SW,226,11.9,11.9,89,0.00,,---,0.00,VWS V14.01,2013-09-01 04:22:00,
2013-09-01 00:28:00,75.2,71.7,29.91,WSW,242,11.0,11.0,89,0.00,,---,0.00,VWS V14.01,2013-09-01 04:28:00,
2013-09-01 00:33:00,75.2,71.7,29.91,SSW,212,6.7,10.5,89,0.00,,---,0.00,VWS V14.01,2013-09-01 04:33:00,
2013-09-01 00:38:00,75.2,71.7,29.91,SW,214,12.8,12.8,89,0.00,,---,0.00,VWS V14.01,2013-09-01 04:38:00,
2013-09-01 00:43:00,75.2,71.7,29.91,SSW,193,10.1,13.2,89,0.00,,---,0.00,VWS V14.01,2013-09-01 04:43:00,
2013-09-01 00:48:00,75.2,71.7,29.91,SW,224,8.1,10.1,89,0.00,,---,0.00,VWS V14.01,2013-09-01 04:48:00,
2013-09-01 00:53:00,75.2,71.7,29.91,WSW,246,8.1,8.3,89,0.00,,---,0.00,VWS V14.01,2013-09-01 04:53:00,
2013-09-01 00:58:00,75.2,71.7,29.91,SSW,205,8.7,11.0,89,0.00,,---,0.00,VWS V14.01,2013-09-01 04:58:00,
2013-09-01 01:03:00,75.2,71.7,29.88,SW,217,12.3,12.3,89,0.00,,---,0.00,VWS V14.01,2013-09-01 05:03:00,
2013-09-01 01:08:00,75.2,71.7,29.88,West,259,10.1,11.0,89,0.00,,---,0.00,VWS V14.01,2013-09-01 05:08:00,
2013-09-01 01:13:00,75.2,71.7,29.88,WSW,254,12.3,12.8,89,0.00,,---,0.00,VWS V14.01,2013-09-01 05:13:00,
2013-09-01 01:18:00,75.2,71.7,29.91,West,265,6.7,8.7,89,0.00,,---,0.00,VWS V14.01,2013-09-01 05:18:00,
2013-09-01 01:23:00,75.2,71.7,29.91,South,187,8.7,8.7,89,0.00,,---,0.00,VWS V14.01,2013-09-01 05:23:00,
2013-09-01 01:28:00,75.2,71.7,29.91,SW,234,5.8,12.8,89,0.00,,---,0.00,VWS V14.01,2013-09-01 05:28:00,
2013-09-01 01:33:00,75.2,71.7,29.91,SSW,213,5.4,10.1,89,0.00,,---,0.00,VWS V14.01,2013-09-01 05:33:00,
2013-09-01 01:38:00,75.0,71.9,29.91,WSW,248,10.5,15.4,90,0.00,,---,0.00,VWS V14.01,2013-09-01 05:38:00,
2013-09-01 01:43:00,75.0,71.9,29.91,SSW,205,8.1,10.1,90,0.00,,---,0.00,VWS V14.01,2013-09-01 05:43:00,
2013-09-01 01:48:00,75.0,71.9,29.88,SSW,207,5.8,6.3,90,0.00,,---,0.00,VWS V14.01,2013-09-01 05:48:00,
2013-09-01 01:53:00,75.0,71.9,29.88,SW,221,12.3,12.8,90,0.00,,---,0.00,VWS V14.01,2013-09-01 05:53:00,
2013-09-01 01:58:00,75.0,71.9,29.88,West,260,8.1,8.1,90,0.00,,---,0.00,VWS V14.01,2013-09-01 05:58:00,
2013-09-01 02:03:00,75.0,71.9,29.88,SW,235,5.8,12.3,90,0.00,,---,0.00,VWS V14.01,2013-09-01 06:03:00,
2013-09-01 02:08:00,75.0,71.9,29.88,SW,234,8.1,12.3,90,0.00,,---,0.00,VWS V14.01,2013-09-01 06:08:00,
2013-09-01 02:13:00,75.0,71.9,29.88,SW,228,8.3,12.8,90,0.00,,---,0.00,VWS V14.01,2013-09-01 06:13:00,
2013-09-01 02:18:00,74.8,71.7,29.88,SW,222,10.5,13.2,90,0.00,,---,0.00,VWS V14.01,2013-09-01 06:18:00,
2013-09-01 02:23:00,74.8,71.7,29.88,WSW,248,7.6,8.7,90,0.00,,---,0.00,VWS V14.01,2013-09-01 06:23:00,
2013-09-01 02:28:00,75.0,71.9,29.88,SSW,200,3.6,10.1,90,0.00,,---,0.00,VWS V14.01,2013-09-01 06:28:00,
2013-09-01 02:33:00,75.0,72.2,29.88,SW,218,5.8,10.5,91,0.00,,---,0.00,VWS V14.01,2013-09-01 06:33:00,
2013-09-01 02:38:00,75.0,72.2,29.88,West,266,5.4,5.4,91,0.00,,---,0.00,VWS V14.01,2013-09-01 06:38:00,
2013-09-01 02:43:00,75.0,72.2,29.88,SW,232,8.7,8.7,91,0.00,,---,0.00,VWS V14.01,2013-09-01 06:43:00,
2013-09-01 02:48:00,75.0,72.2,29.88,SW,234,11.0,11.0,91,0.00,,---,0.00,VWS V14.01,2013-09-01 06:48:00,
2013-09-01 02:53:00,75.0,72.2,29.88,WSW,251,7.6,12.3,91,0.00,,---,0.00,VWS V14.01,2013-09-01 06:53:00,
2013-09-01 02:58:00,75.0,72.2,29.88,WSW,252,8.1,10.5,91,0.00,,---,0.00,VWS V14.01,2013-09-01 06:58:00,
2013-09-01 03:03:00,74.8,72.0,29.88,WSW,253,8.3,8.7,91,0.00,,---,0.00,VWS V14.01,2013-09-01 07:03:00,
2013-09-01 03:08:00,75.0,72.2,29.88,WSW,258,10.1,10.1,91,0.00,,---,0.00,VWS V14.01,2013-09-01 07:08:00,
2013-09-01 03:13:00,74.8,72.0,29.88,SSW,203,8.7,8.7,91,0.00,,---,0.00,VWS V14.01,2013-09-01 07:13:00,
2013-09-01 03:18:00,74.8,72.0,29.88,SW,219,5.8,8.3,91,0.00,,---,0.00,VWS V14.01,2013-09-01 07:18:00,
2013-09-01 03:23:00,74.8,72.0,29.88,West,261,3.6,7.6,91,0.00,,---,0.00,VWS V14.01,2013-09-01 07:23:00,
2013-09-01 03:28:00,74.8,72.0,29.88,SW,233,3.1,7.6,91,0.00,,---,0.00,VWS V14.01,2013-09-01 07:28:00,
2013-09-01 03:33:00,74.8,72.0,29.88,South,187,5.8,10.1,91,0.00,,---,0.00,VWS V14.01,2013-09-01 07:33:00,
2013-09-01 03:38:00,74.8,72.0,29.88,SW,233,4.0,7.2,91,0.00,,---,0.00,VWS V14.01,2013-09-01 07:38:00,
2013-09-01 03:44:00,74.8,72.4,29.88,WSW,247,5.4,8.3,92,0.00,,---,0.00,VWS V14.01,2013-09-01 07:44:00,
2013-09-01 03:49:00,74.8,72.4,29.88,SSW,211,8.7,8.7,92,0.00,,---,0.00,VWS V14.01,2013-09-01 07:49:00,
2013-09-01 03:54:00,74.8,72.4,29.88,West,266,8.3,8.3,92,0.00,,---,0.00,VWS V14.01,2013-09-01 07:54:00,
2013-09-01 03:59:00,74.8,72.4,29.88,SSE,167,7.6,8.3,92,0.00,,---,0.00,VWS V14.01,2013-09-01 07:59:00,
2013-09-01 04:04:00,74.8,72.4,29.88,SW,214,5.8,7.6,92,0.00,,---,0.00,VWS V14.01,2013-09-01 08:04:00,
2013-09-01 04:09:00,74.7,72.2,29.88,SW,233,8.1,10.1,92,0.00,,---,0.00,VWS V14.01,2013-09-01 08:09:00,
2013-09-01 04:14:00,74.7,72.2,29.88,SW,214,9.6,11.4,92,0.00,,---,0.00,VWS V14.01,2013-09-01 08:14:00,
2013-09-01 04:19:00,74.7,72.2,29.88,SSW,195,7.6,9.2,92,0.00,,---,0.00,VWS V14.01,2013-09-01 08:19:00,
2013-09-01 04:24:00,74.7,72.2,29.88,SW,233,8.1,10.1,92,0.00,,---,0.00,VWS V14.01,2013-09-01 08:24:00,
2013-09-01 04:29:00,74.7,72.2,29.88,SSE,157,8.1,8.1,92,0.00,,---,0.00,VWS V14.01,2013-09-01 08:29:00,
2013-09-01 04:34:00,74.7,72.2,29.88,WSW,245,5.4,9.2,92,0.00,,---,0.00,VWS V14.01,2013-09-01 08:34:00,
2013-09-01 04:39:00,74.7,72.2,29.88,WNW,286,5.8,6.7,92,0.00,,---,0.00,VWS V14.01,2013-09-01 08:39:00,
2013-09-01 04:44:00,74.7,72.2,29.88,SSW,197,8.1,8.1,92,0.00,,---,0.00,VWS V14.01,2013-09-01 08:44:00,
2013-09-01 04:49:00,74.7,72.2,29.88,SSW,193,5.8,8.3,92,0.00,,---,0.00,VWS V14.01,2013-09-01 08:49:00,
2013-09-01 04:54:00,74.7,72.2,29.88,SW,221,10.5,10.5,92,0.00,,---,0.00,VWS V14.01,2013-09-01 08:54:00,
2013-09-01 04:59:00,74.7,72.2,29.88,SSW,200,4.9,8.1,92,0.00,,---,0.00,VWS V14.01,2013-09-01 08:59:00,
2013-09-01 05:04:00,74.7,72.2,29.88,SSW,213,8.1,11.0,92,0.00,,---,0.00,VWS V14.01,2013-09-01 09:04:00,
2013-09-01 05:09:00,74.7,72.2,29.88,SW,216,11.0,11.0,92,0.00,,---,0.00,VWS V14.01,2013-09-01 09:09:00,
2013-09-01 05:14:00,74.7,72.5,29.88,SSW,213,2.7,8.1,93,0.00,,---,0.00,VWS V14.01,2013-09-01 09:14:00,
2013-09-01 05:19:00,74.7,72.5,29.88,SW,234,10.5,10.5,93,0.00,,---,0.00,VWS V14.01,2013-09-01 09:19:00,
2013-09-01 05:24:00,74.7,72.5,29.88,WSW,238,8.1,8.1,93,0.00,,---,0.00,VWS V14.01,2013-09-01 09:24:00,
2013-09-01 05:29:00,74.7,72.5,29.88,South,173,5.4,5.4,93,0.00,,---,0.00,VWS V14.01,2013-09-01 09:29:00,
2013-09-01 05:34:00,74.7,72.5,29.88,West,276,2.7,8.1,93,0.00,,---,0.00,VWS V14.01,2013-09-01 09:34:00,
2013-09-01 05:39:00,74.7,72.5,29.88,SSW,197,6.7,6.7,93,0.00,,---,0.00,VWS V14.01,2013-09-01 09:39:00,
2013-09-01 05:44:00,74.7,72.5,29.88,SW,224,3.6,5.4,93,0.00,,---,0.00,VWS V14.01,2013-09-01 09:44:00,
2013-09-01 05:49:00,74.7,72.5,29.88,WSW,247,8.1,8.1,93,0.00,,---,0.00,VWS V14.01,2013-09-01 09:49:00,
2013-09-01 05:54:00,74.7,72.5,29.88,SW,225,4.9,7.6,93,0.00,,---,0.00,VWS V14.01,2013-09-01 09:54:00,
2013-09-01 05:59:00,74.7,72.5,29.88,WSW,244,6.7,6.7,93,0.00,,---,0.00,VWS V14.01,2013-09-01 09:59:00,
2013-09-01 06:04:00,74.7,72.5,29.88,SSW,213,7.6,7.6,93,0.00,,---,0.00,VWS V14.01,2013-09-01 10:04:00,
2013-09-01 06:09:00,74.7,72.5,29.88,SW,226,9.6,9.6,93,0.00,,---,0.00,VWS V14.01,2013-09-01 10:09:00,
2013-09-01 06:14:00,74.7,72.5,29.88,WSW,252,4.9,5.8,93,0.00,,---,0.00,VWS V14.01,2013-09-01 10:14:00,
2013-09-01 06:19:00,74.7,72.5,29.88,WSW,248,5.8,6.3,93,0.00,,---,0.00,VWS V14.01,2013-09-01 10:19:00,
2013-09-01 06:24:00,74.7,72.5,29.88,WSW,249,4.9,5.8,93,0.00,,---,0.00,VWS V14.01,2013-09-01 10:24:00,
2013-09-01 06:29:00,74.5,72.3,29.88,WSW,239,3.6,5.8,93,0.00,,---,0.00,VWS V14.01,2013-09-01 10:29:00,
2013-09-01 06:34:00,74.5,72.3,29.91,South,187,3.6,3.6,93,0.00,,---,0.00,VWS V14.01,2013-09-01 10:34:00,
2013-09-01 06:39:00,74.5,72.3,29.91,SW,214,5.4,5.4,93,0.00,,---,0.00,VWS V14.01,2013-09-01 10:39:00,
2013-09-01 06:44:00,74.5,72.6,29.91,SW,221,3.1,9.6,94,0.00,,---,0.00,VWS V14.01,2013-09-01 10:44:00,
2013-09-01 06:49:00,74.5,72.6,29.91,SW,222,4.0,8.3,94,0.00,,---,0.00,VWS V14.01,2013-09-01 10:49:00,
2013-09-01 06:54:00,74.5,72.6,29.91,WSW,243,7.6,7.6,94,0.00,,---,0.00,VWS V14.01,2013-09-01 10:54:00,
2013-09-01 06:59:00,74.5,72.6,29.91,SW,236,4.0,6.3,94,0.00,,---,0.00,VWS V14.01,2013-09-01 10:59:00,
2013-09-01 07:04:00,74.5,72.6,29.91,SW,225,8.1,8.1,94,0.00,,---,0.00,VWS V14.01,2013-09-01 11:04:00,
2013-09-01 07:09:00,74.5,72.6,29.91,SW,214,6.3,6.3,94,0.00,,---,0.00,VWS V14.01,2013-09-01 11:09:00,
2013-09-01 07:14:00,74.5,72.6,29.91,SW,217,5.8,5.8,94,0.00,,---,0.00,VWS V14.01,2013-09-01 11:14:00,
2013-09-01 07:19:00,74.7,72.8,29.91,WSW,245,8.1,8.7,94,0.00,,---,0.00,VWS V14.01,2013-09-01 11:19:00,
2013-09-01 07:24:00,74.8,73.0,29.91,WSW,245,7.6,8.1,94,0.00,,---,0.00,VWS V14.01,2013-09-01 11:24:00,
2013-09-01 07:29:00,75.0,73.2,29.91,SSW,207,5.8,5.8,94,0.00,,---,0.00,VWS V14.01,2013-09-01 11:29:00,
2013-09-01 07:34:00,75.2,73.0,29.91,South,175,3.6,3.6,93,0.00,,---,0.00,VWS V14.01,2013-09-01 11:34:00,
2013-09-01 07:39:00,75.2,73.0,29.91,SSW,206,5.8,7.6,93,0.00,,---,0.00,VWS V14.01,2013-09-01 11:39:00,
2013-09-01 07:44:00,75.4,72.9,29.91,SSW,211,7.6,7.6,92,0.00,,---,0.00,VWS V14.01,2013-09-01 11:44:00,
2013-09-01 07:49:00,75.4,72.9,29.91,SSW,212,7.6,10.5,92,0.00,,---,0.00,VWS V14.01,2013-09-01 11:49:00,
2013-09-01 07:54:00,75.2,72.7,29.91,SW,217,5.4,6.3,92,0.00,,---,0.00,VWS V14.01,2013-09-01 11:54:00,
2013-09-01 07:59:00,75.2,72.7,29.91,SSW,203,5.8,8.7,92,0.00,,---,0.00,VWS V14.01,2013-09-01 11:59:00,
2013-09-01 08:04:00,75.2,72.7,29.91,SW,236,8.7,8.7,92,0.00,,---,0.00,VWS V14.01,2013-09-01 12:04:00,
2013-09-01 08:09:00,75.2,72.4,29.91,SW,215,7.6,8.1,91,0.00,,---,0.00,VWS V14.01,2013-09-01 12:09:00,
2013-09-01 08:14:00,75.4,72.6,29.91,South,189,7.2,7.2,91,0.00,,---,0.00,VWS V14.01,2013-09-01 12:14:00,
2013-09-01 08:19:00,75.4,72.6,29.91,SW,224,3.6,4.0,91,0.00,,---,0.00,VWS V14.01,2013-09-01 12:19:00,
2013-09-01 08:24:00,75.4,72.6,29.91,South,175,5.4,5.4,91,0.00,,---,0.00,VWS V14.01,2013-09-01 12:24:00,
2013-09-01 08:29:00,75.6,72.8,29.91,SW,226,8.3,8.3,91,0.00,,---,0.00,VWS V14.01,2013-09-01 12:29:00,
2013-09-01 08:34:00,75.6,72.8,29.91,SSW,207,9.6,9.6,91,0.00,,---,0.00,VWS V14.01,2013-09-01 12:34:00,
2013-09-01 08:39:00,75.7,72.9,29.91,SW,235,4.9,7.6,91,0.00,,---,0.00,VWS V14.01,2013-09-01 12:39:00,
2013-09-01 08:44:00,76.3,73.1,29.91,SW,217,5.4,8.1,90,0.00,,---,0.00,VWS V14.01,2013-09-01 12:44:00,
2013-09-01 08:49:00,76.5,73.3,29.91,SW,230,8.3,8.3,90,0.00,,---,0.00,VWS V14.01,2013-09-01 12:49:00,
2013-09-01 08:54:00,76.3,72.8,29.91,SSW,211,8.3,10.1,89,0.00,,---,0.00,VWS V14.01,2013-09-01 12:54:00,
2013-09-01 08:59:00,76.6,73.2,29.91,SSW,197,4.0,6.7,89,0.00,,---,0.00,VWS V14.01,2013-09-01 12:59:00,
2013-09-01 09:04:00,77.4,73.5,29.91,SW,218,8.7,8.7,88,0.00,,---,0.00,VWS V14.01,2013-09-01 13:04:00,
2013-09-01 09:09:00,78.1,73.6,29.91,SSW,213,8.3,8.7,86,0.00,,---,0.00,VWS V14.01,2013-09-01 13:09:00,
2013-09-01 09:14:00,78.4,73.2,29.91,SSW,211,7.6,9.6,84,0.00,,---,0.00,VWS V14.01,2013-09-01 13:14:00,
2013-09-01 09:19:00,78.8,72.8,29.91,SSW,212,8.1,8.7,82,0.00,,---,0.00,VWS V14.01,2013-09-01 13:19:00,
2013-09-01 09:24:00,78.3,72.0,29.91,SW,235,6.7,10.5,81,0.00,,---,0.00,VWS V14.01,2013-09-01 13:24:00,
2013-09-01 09:29:00,77.7,72.2,29.91,SSW,207,10.1,10.1,83,0.00,,---,0.00,VWS V14.01,2013-09-01 13:29:00,
2013-09-01 09:34:00,77.4,72.2,29.91,SW,226,11.0,11.0,84,0.00,,---,0.00,VWS V14.01,2013-09-01 13:34:00,
2013-09-01 09:39:00,77.0,72.2,29.91,SSW,196,11.0,11.0,85,0.00,,---,0.00,VWS V14.01,2013-09-01 13:39:00,
2013-09-01 09:44:00,76.8,72.3,29.91,South,189,9.6,10.1,86,0.00,,---,0.00,VWS V14.01,2013-09-01 13:44:00,
2013-09-01 09:49:00,76.8,72.3,29.91,SW,218,10.5,10.5,86,0.00,,---,0.00,VWS V14.01,2013-09-01 13:49:00,
2013-09-01 09:54:00,76.6,72.1,29.91,SW,215,10.5,10.5,86,0.00,,---,0.00,VWS V14.01,2013-09-01 13:54:00,
2013-09-01 09:59:00,76.8,72.3,29.91,SSW,202,7.6,10.5,86,0.00,,---,0.00,VWS V14.01,2013-09-01 13:59:00,
2013-09-01 10:04:00,77.0,72.5,29.91,SSW,196,8.3,11.9,86,0.00,,---,0.00,VWS V14.01,2013-09-01 14:04:00,
2013-09-01 10:09:00,77.5,72.7,29.91,South,174,6.3,11.0,85,0.00,,---,0.00,VWS V14.01,2013-09-01 14:09:00,
2013-09-01 10:14:00,78.1,72.9,29.91,SW,215,7.6,8.3,84,0.00,,---,0.00,VWS V14.01,2013-09-01 14:14:00,
2013-09-01 10:19:00,78.4,72.5,29.91,South,182,10.1,11.0,82,0.00,,---,0.00,VWS V14.01,2013-09-01 14:19:00,
2013-09-01 10:24:00,79.0,72.7,29.91,South,183,10.1,10.1,81,0.00,,---,0.00,VWS V14.01,2013-09-01 14:24:00,
2013-09-01 10:29:00,78.3,72.0,29.91,SSW,194,10.5,11.0,81,0.00,,---,0.00,VWS V14.01,2013-09-01 14:29:00,
2013-09-01 10:34:00,78.3,72.3,29.91,South,188,7.6,8.1,82,0.00,,---,0.00,VWS V14.01,2013-09-01 14:34:00,
2013-09-01 10:39:00,78.4,72.5,29.91,SW,226,8.3,8.3,82,0.00,,---,0.00,VWS V14.01,2013-09-01 14:39:00,
2013-09-01 10:44:00,78.8,72.5,29.91,South,189,5.4,8.1,81,0.00,,---,0.00,VWS V14.01,2013-09-01 14:44:00,
2013-09-01 10:49:00,78.4,72.1,29.91,SSW,197,8.1,8.3,81,0.00,,---,0.00,VWS V14.01,2013-09-01 14:49:00,
2013-09-01 10:54:00,78.1,71.8,29.91,SW,220,7.6,11.0,81,0.00,,---,0.00,VWS V14.01,2013-09-01 14:54:00,
2013-09-01 10:59:00,78.8,72.5,29.91,SW,230,4.9,8.3,81,0.00,,---,0.00,VWS V14.01,2013-09-01 14:59:00,
2013-09-01 11:04:00,79.0,72.3,29.91,South,187,8.1,8.3,80,0.00,,---,0.00,VWS V14.01,2013-09-01 15:04:00,
2013-09-01 11:09:00,79.5,72.4,29.91,South,186,5.4,12.3,79,0.00,,---,0.00,VWS V14.01,2013-09-01 15:09:00,
2013-09-01 11:14:00,80.2,72.8,29.91,WSW,243,7.2,7.2,78,0.00,,---,0.00,VWS V14.01,2013-09-01 15:14:00,
2013-09-01 11:19:00,80.4,72.6,29.91,South,185,8.1,10.5,77,0.00,,---,0.00,VWS V14.01,2013-09-01 15:19:00,
2013-09-01 11:24:00,80.4,72.6,29.91,SSW,210,8.3,10.5,77,0.00,,---,0.00,VWS V14.01,2013-09-01 15:24:00,
2013-09-01 11:29:00,81.0,72.7,29.91,WSW,254,8.3,8.3,76,0.00,,---,0.00,VWS V14.01,2013-09-01 15:29:00,
2013-09-01 11:34:00,81.3,72.6,29.91,SW,234,3.6,5.4,75,0.00,,---,0.00,VWS V14.01,2013-09-01 15:34:00,
2013-09-01 11:39:00,81.7,73.0,29.91,SSW,195,8.1,8.7,75,0.00,,---,0.00,VWS V14.01,2013-09-01 15:39:00,
2013-09-01 11:44:00,81.5,72.4,29.91,South,190,8.7,11.4,74,0.00,,---,0.00,VWS V14.01,2013-09-01 15:44:00,
2013-09-01 11:49:00,81.9,72.8,29.91,WSW,237,5.8,10.5,74,0.00,,---,0.00,VWS V14.01,2013-09-01 15:49:00,
2013-09-01 11:54:00,81.5,72.0,29.91,SSW,212,9.6,11.0,73,0.00,,---,0.00,VWS V14.01,2013-09-01 15:54:00,
2013-09-01 11:59:00,81.3,72.2,29.91,SW,226,10.1,12.8,74,0.00,,---,0.00,VWS V14.01,2013-09-01 15:59:00,
2013-09-01 12:04:00,81.7,72.6,29.91,South,181,10.1,11.0,74,0.00,,---,0.00,VWS V14.01,2013-09-01 16:04:00,
2013-09-01 12:09:00,82.4,72.9,29.91,West,268,10.5,10.5,73,0.00,,---,0.00,VWS V14.01,2013-09-01 16:09:00,
2013-09-01 12:14:00,82.4,72.1,29.91,South,181,5.8,12.3,71,0.00,,---,0.00,VWS V14.01,2013-09-01 16:14:00,
2013-09-01 12:20:00,82.4,72.1,29.91,SW,232,10.1,11.0,71,0.00,,---,0.00,VWS V14.01,2013-09-01 16:20:00,
2013-09-01 12:25:00,82.6,72.7,29.91,SW,216,5.4,8.3,72,0.00,,---,0.00,VWS V14.01,2013-09-01 16:25:00,
2013-09-01 12:30:00,83.1,72.3,29.91,South,190,8.3,11.0,70,0.00,,---,0.00,VWS V14.01,2013-09-01 16:30:00,
2013-09-01 12:35:00,82.8,72.0,29.91,SW,226,8.3,10.1,70,0.00,,---,0.00,VWS V14.01,2013-09-01 16:35:00,
2013-09-01 12:40:00,82.8,72.0,29.91,SSW,213,10.5,10.5,70,0.00,,---,0.00,VWS V14.01,2013-09-01 16:40:00,
2013-09-01 12:45:00,82.8,72.4,29.91,South,181,5.8,7.6,71,0.00,,---,0.00,VWS V14.01,2013-09-01 16:45:00,
2013-09-01 12:50:00,83.1,72.3,29.91,South,191,8.1,9.2,70,0.00,,---,0.00,VWS V14.01,2013-09-01 16:50:00,
2013-09-01 12:55:00,82.4,72.1,29.91,SW,229,7.6,11.0,71,0.00,,---,0.00,VWS V14.01,2013-09-01 16:55:00,
2013-09-01 13:00:00,82.6,72.7,29.88,South,190,6.3,8.3,72,0.00,,---,0.00,VWS V14.01,2013-09-01 17:00:00,
2013-09-01 13:05:00,82.9,72.6,29.88,SW,221,8.1,10.1,71,0.00,,---,0.00,VWS V14.01,2013-09-01 17:05:00,
2013-09-01 13:10:00,83.5,72.2,29.88,SSW,199,5.8,9.6,69,0.00,,---,0.00,VWS V14.01,2013-09-01 17:10:00,
2013-09-01 13:15:00,83.5,72.2,29.88,SSW,206,10.5,10.5,69,0.00,,---,0.00,VWS V14.01,2013-09-01 17:15:00,
2013-09-01 13:20:00,83.7,72.0,29.88,West,261,11.0,13.6,68,0.00,,---,0.00,VWS V14.01,2013-09-01 17:20:00,
2013-09-01 13:25:00,83.7,72.0,29.88,SSW,195,8.1,10.5,68,0.00,,---,0.00,VWS V14.01,2013-09-01 17:25:00,
2013-09-01 13:30:00,83.7,72.0,29.88,South,180,8.1,11.0,68,0.00,,---,0.00,VWS V14.01,2013-09-01 17:30:00,
2013-09-01 13:35:00,84.0,72.8,29.88,SSE,153,5.4,8.1,69,0.00,,---,0.00,VWS V14.01,2013-09-01 17:35:00,
2013-09-01 13:40:00,83.3,71.6,29.88,SW,216,10.1,13.2,68,0.00,,---,0.00,VWS V14.01,2013-09-01 17:40:00,
2013-09-01 13:45:00,83.8,72.2,29.88,WSW,238,12.8,12.8,68,0.00,,---,0.00,VWS V14.01,2013-09-01 17:45:00,
2013-09-01 13:50:00,83.8,72.2,29.88,SSE,167,6.3,10.1,68,0.00,,---,0.00,VWS V14.01,2013-09-01 17:50:00,
2013-09-01 13:55:00,84.4,72.2,29.88,SSW,203,7.6,8.7,67,0.00,,---,0.00,VWS V14.01,2013-09-01 17:55:00,
2013-09-01 14:00:00,84.4,72.2,29.88,SSW,202,11.0,11.0,67,0.00,,---,0.00,VWS V14.01,2013-09-01 18:00:00,
2013-09-01 14:05:00,84.4,72.2,29.88,South,181,8.7,11.0,67,0.00,,---,0.00,VWS V14.01,2013-09-01 18:05:00,
2013-09-01 14:10:00,82.6,71.4,29.88,SW,229,6.3,10.5,69,0.00,,---,0.00,VWS V14.01,2013-09-01 18:10:00,
2013-09-01 14:15:00,81.9,71.9,29.88,South,182,7.6,8.7,72,0.00,,---,0.00,VWS V14.01,2013-09-01 18:15:00,
2013-09-01 14:20:00,81.9,71.9,29.88,SSW,204,8.7,8.7,72,0.00,,---,0.00,VWS V14.01,2013-09-01 18:20:00,
2013-09-01 14:25:00,82.2,72.7,29.88,SSW,207,5.4,14.1,73,0.00,,---,0.00,VWS V14.01,2013-09-01 18:25:00,
2013-09-01 14:30:00,83.3,72.9,29.88,SSW,192,7.2,8.1,71,0.00,,---,0.00,VWS V14.01,2013-09-01 18:30:00,
2013-09-01 14:35:00,84.2,72.5,29.88,South,189,11.0,11.0,68,0.00,,---,0.00,VWS V14.01,2013-09-01 18:35:00,
2013-09-01 14:40:00,85.1,72.9,29.88,South,174,11.0,11.0,67,0.00,,---,0.00,VWS V14.01,2013-09-01 18:40:00,
2013-09-01 14:45:00,84.0,71.9,29.88,SSW,207,10.5,10.5,67,0.00,,---,0.00,VWS V14.01,2013-09-01 18:45:00,
2013-09-01 14:50:00,84.6,72.4,29.88,South,190,10.1,10.1,67,0.00,,---,0.00,VWS V14.01,2013-09-01 18:50:00,
2013-09-01 14:55:00,83.5,71.4,29.88,SSW,202,8.7,8.7,67,0.00,,---,0.00,VWS V14.01,2013-09-01 18:55:00,
2013-09-01 15:00:00,84.4,72.2,29.88,South,178,10.5,15.4,67,0.00,,---,0.00,VWS V14.01,2013-09-01 19:00:00,
2013-09-01 15:05:00,84.0,71.4,29.88,West,270,8.1,13.2,66,0.00,,---,0.00,VWS V14.01,2013-09-01 19:05:00,
2013-09-01 15:10:00,84.6,71.1,29.88,South,172,11.0,11.0,64,0.00,,---,0.00,VWS V14.01,2013-09-01 19:10:00,
2013-09-01 15:15:00,84.7,70.3,29.88,SW,232,11.0,11.0,62,0.00,,---,0.00,VWS V14.01,2013-09-01 19:15:00,
2013-09-01 15:20:00,86.2,71.2,29.88,SSW,200,6.3,6.3,61,0.00,,---,0.00,VWS V14.01,2013-09-01 19:20:00,
2013-09-01 15:25:00,87.3,70.7,29.88,WSW,250,5.8,8.3,58,0.00,,---,0.00,VWS V14.01,2013-09-01 19:25:00,
2013-09-01 15:30:00,85.6,69.2,29.85,SW,233,8.1,8.1,58,0.00,,---,0.00,VWS V14.01,2013-09-01 19:30:00,
2013-09-01 15:35:00,83.7,68.3,29.85,SW,216,8.1,10.1,60,0.00,,---,0.00,VWS V14.01,2013-09-01 19:35:00,
2013-09-01 15:40:00,82.8,68.4,29.85,South,182,7.6,7.6,62,0.00,,---,0.00,VWS V14.01,2013-09-01 19:40:00,
2013-09-01 15:45:00,82.2,68.4,29.83,SW,217,7.6,7.6,63,0.00,,---,0.00,VWS V14.01,2013-09-01 19:45:00,
2013-09-01 15:50:00,82.0,68.2,29.83,SW,227,4.0,4.0,63,0.00,,---,0.00,VWS V14.01,2013-09-01 19:50:00,
2013-09-01 15:56:00,83.5,68.6,29.83,SW,234,6.3,7.2,61,0.00,,---,0.00,VWS V14.01,2013-09-01 19:56:00,
2013-09-01 16:01:00,86.4,68.8,29.85,South,190,7.6,7.6,56,0.00,,---,0.00,VWS V14.01,2013-09-01 20:01:00,
2013-09-01 16:06:00,86.7,67.0,29.85,SSW,195,4.9,8.3,52,0.00,,---,0.00,VWS V14.01,2013-09-01 20:06:00,
2013-09-01 16:11:00,86.5,66.3,29.85,SSE,164,4.0,8.1,51,0.00,,---,0.00,VWS V14.01,2013-09-01 20:11:00,
2013-09-01 16:17:00,87.1,66.8,29.85,SSW,200,8.3,8.3,51,0.00,,---,0.00,VWS V14.01,2013-09-01 20:17:00,
2013-09-01 16:22:00,86.7,66.4,29.85,SSW,206,8.1,8.1,51,0.00,,---,0.00,VWS V14.01,2013-09-01 20:22:00,
2013-09-01 16:27:00,85.6,66.6,29.85,SSW,209,10.1,10.5,53,0.00,,---,0.00,VWS V14.01,2013-09-01 20:27:00,
2013-09-01 16:32:00,84.7,66.3,29.85,SW,220,8.3,12.8,54,0.00,,---,0.00,VWS V14.01,2013-09-01 20:32:00,
2013-09-01 16:38:00,84.6,68.2,29.85,SSW,194,7.6,8.7,58,0.00,,---,0.00,VWS V14.01,2013-09-01 20:38:00,
2013-09-01 16:44:00,84.4,69.0,29.85,South,174,7.6,10.5,60,0.00,,---,0.00,VWS V14.01,2013-09-01 20:44:00,
2013-09-01 16:49:00,84.6,70.1,29.85,South,170,8.1,8.3,62,0.00,,---,0.00,VWS V14.01,2013-09-01 20:49:00,
2013-09-01 16:55:00,84.4,70.9,29.85,SSW,213,10.5,10.5,64,0.00,,---,0.00,VWS V14.01,2013-09-01 20:55:00,
2013-09-01 17:00:00,84.0,71.4,29.85,SSW,203,8.1,8.1,66,0.00,,---,0.00,VWS V14.01,2013-09-01 21:00:00,
2013-09-01 17:05:00,83.7,71.6,29.85,South,184,8.1,8.3,67,0.00,,---,0.00,VWS V14.01,2013-09-01 21:05:00,
2013-09-01 17:10:00,83.1,71.0,29.85,SSW,195,10.1,11.0,67,0.00,,---,0.00,VWS V14.01,2013-09-01 21:10:00,
2013-09-01 17:15:00,82.9,71.3,29.85,SSW,206,8.1,10.1,68,0.00,,---,0.00,VWS V14.01,2013-09-01 21:15:00,
2013-09-01 17:20:00,82.9,71.3,29.85,SSW,194,8.7,8.7,68,0.00,,---,0.00,VWS V14.01,2013-09-01 21:20:00,
2013-09-01 17:25:00,82.8,71.1,29.85,South,188,9.6,10.5,68,0.00,,---,0.00,VWS V14.01,2013-09-01 21:25:00,
2013-09-01 17:30:00,82.4,71.2,29.85,SSW,211,10.5,10.5,69,0.00,,---,0.00,VWS V14.01,2013-09-01 21:30:00,
2013-09-01 17:35:00,82.4,71.6,29.85,SW,226,8.1,10.1,70,0.00,,---,0.00,VWS V14.01,2013-09-01 21:35:00,
2013-09-01 17:40:00,82.2,71.5,29.85,South,175,5.8,8.1,70,0.00,,---,0.00,VWS V14.01,2013-09-01 21:40:00,
2013-09-01 17:45:00,82.0,71.3,29.85,South,190,8.7,10.1,70,0.00,,---,0.00,VWS V14.01,2013-09-01 21:45:00,
2013-09-01 17:50:00,82.0,71.7,29.85,South,188,6.3,8.1,71,0.00,,---,0.00,VWS V14.01,2013-09-01 21:50:00,
2013-09-01 17:55:00,82.4,71.6,29.85,SSW,208,6.3,8.1,70,0.00,,---,0.00,VWS V14.01,2013-09-01 21:55:00,
2013-09-01 18:00:00,82.4,71.6,29.85,SW,214,5.8,6.3,70,0.00,,---,0.00,VWS V14.01,2013-09-01 22:00:00,
2013-09-01 18:05:00,82.8,72.0,29.85,SSW,207,5.8,5.8,70,0.00,,---,0.00,VWS V14.01,2013-09-01 22:05:00,
2013-09-01 18:10:00,82.2,71.9,29.85,SSW,201,5.8,6.3,71,0.00,,---,0.00,VWS V14.01,2013-09-01 22:10:00,
2013-09-01 18:15:00,82.4,72.1,29.85,SSW,198,4.0,5.8,71,0.00,,---,0.00,VWS V14.01,2013-09-01 22:15:00,
2013-09-01 18:20:00,82.4,72.5,29.85,South,189,4.0,5.4,72,0.00,,---,0.00,VWS V14.01,2013-09-01 22:20:00,
2013-09-01 18:26:00,83.8,73.0,29.85,South,191,4.9,4.9,70,0.00,,---,0.00,VWS V14.01,2013-09-01 22:26:00,
2013-09-01 18:31:00,83.7,72.4,29.85,SSW,202,8.7,8.7,69,0.00,,---,0.00,VWS V14.01,2013-09-01 22:31:00,
2013-09-01 18:36:00,82.8,72.4,29.85,SE,145,5.8,8.1,71,0.00,,---,0.00,VWS V14.01,2013-09-01 22:36:00,
2013-09-01 18:41:00,82.8,72.4,29.85,South,180,6.7,8.1,71,0.00,,---,0.00,VWS V14.01,2013-09-01 22:41:00,
2013-09-01 18:46:00,81.5,71.6,29.85,South,189,6.3,8.3,72,0.00,,---,0.00,VWS V14.01,2013-09-01 22:46:00,
2013-09-01 18:51:00,80.1,71.4,29.85,SSW,203,6.7,8.7,75,0.00,,---,0.00,VWS V14.01,2013-09-01 22:51:00,
2013-09-01 18:56:00,79.0,71.5,29.85,SSW,210,9.6,10.1,78,0.00,,---,0.00,VWS V14.01,2013-09-01 22:56:00,
2013-09-01 19:01:00,79.2,72.1,29.85,South,190,8.7,8.7,79,0.00,,---,0.00,VWS V14.01,2013-09-01 23:01:00,
2013-09-01 19:06:00,79.0,71.9,29.85,South,190,8.1,8.3,79,0.00,,---,0.00,VWS V14.01,2013-09-01 23:06:00,
2013-09-01 19:11:00,77.9,71.6,29.85,SW,232,8.1,10.1,81,0.00,,---,0.00,VWS V14.01,2013-09-01 23:11:00,
2013-09-01 19:16:00,77.4,72.2,29.85,SSW,210,7.6,10.1,84,0.00,,---,0.00,VWS V14.01,2013-09-01 23:16:00,
2013-09-01 19:21:00,77.0,72.2,29.85,SW,215,10.1,11.0,85,0.00,,---,0.00,VWS V14.01,2013-09-01 23:21:00,
2013-09-01 19:26:00,77.0,72.5,29.85,SW,220,11.0,11.0,86,0.00,,---,0.00,VWS V14.01,2013-09-01 23:26:00,
2013-09-01 19:31:00,76.8,72.7,29.85,SSW,199,11.0,11.0,87,0.00,,---,0.00,VWS V14.01,2013-09-01 23:31:00,
2013-09-01 19:36:00,76.6,72.8,29.85,SSW,202,8.3,11.0,88,0.00,,---,0.00,VWS V14.01,2013-09-01 23:36:00,
2013-09-01 19:41:00,76.6,72.8,29.85,SW,214,8.7,12.8,88,0.00,,---,0.00,VWS V14.01,2013-09-01 23:41:00,
2013-09-01 19:46:00,76.5,73.0,29.85,SW,222,11.0,13.2,89,0.00,,---,0.00,VWS V14.01,2013-09-01 23:46:00,
2013-09-01 19:51:00,76.5,73.0,29.85,SSW,194,8.1,10.1,89,0.00,,---,0.00,VWS V14.01,2013-09-01 23:51:00,
2013-09-01 19:56:00,76.5,73.3,29.85,SW,216,13.2,13.2,90,0.00,,---,0.00,VWS V14.01,2013-09-01 23:56:00,
2013-09-01 20:01:00,76.5,73.3,29.85,SSW,196,11.0,11.4,90,0.00,,---,0.00,VWS V14.01,2013-09-02 00:01:00,
2013-09-01 20:06:00,76.5,73.3,29.85,South,175,8.1,9.6,90,0.00,,---,0.00,VWS V14.01,2013-09-02 00:06:00,
2013-09-01 20:11:00,76.5,73.3,29.85,SSW,204,11.0,13.2,90,0.00,,---,0.00,VWS V14.01,2013-09-02 00:11:00,
2013-09-01 20:16:00,76.3,73.1,29.85,SSW,204,8.3,12.8,90,0.00,,---,0.00,VWS V14.01,2013-09-02 00:16:00,
2013-09-01 20:21:00,76.3,73.1,29.85,South,179,8.3,10.5,90,0.00,,---,0.00,VWS V14.01,2013-09-02 00:21:00,
2013-09-01 20:26:00,76.3,73.1,29.85,South,191,8.7,8.7,90,0.00,,---,0.00,VWS V14.01,2013-09-02 00:26:00,
2013-09-01 20:31:00,76.3,73.1,29.85,SSW,206,5.8,8.1,90,0.00,,---,0.00,VWS V14.01,2013-09-02 00:31:00,
2013-09-01 20:36:00,76.3,73.1,29.85,SSW,213,11.0,11.0,90,0.00,,---,0.00,VWS V14.01,2013-09-02 00:36:00,
2013-09-01 20:41:00,76.5,73.3,29.85,South,186,5.8,8.7,90,0.00,,---,0.00,VWS V14.01,2013-09-02 00:41:00,
2013-09-01 20:46:00,76.3,73.1,29.85,SW,218,5.8,5.8,90,0.00,,---,0.00,VWS V14.01,2013-09-02 00:46:00,
2013-09-01 20:51:00,76.3,73.1,29.85,SSW,198,5.8,7.6,90,0.00,,---,0.00,VWS V14.01,2013-09-02 00:51:00,
2013-09-01 20:56:00,76.3,73.1,29.85,SW,216,8.7,8.7,90,0.00,,---,0.00,VWS V14.01,2013-09-02 00:56:00,
2013-09-01 21:01:00,76.3,73.1,29.88,South,186,5.4,5.4,90,0.00,,---,0.00,VWS V14.01,2013-09-02 01:01:00,
2013-09-01 21:06:00,76.1,73.0,29.88,SSW,204,5.8,5.8,90,0.00,,---,0.00,VWS V14.01,2013-09-02 01:06:00,
2013-09-01 21:11:00,76.1,73.0,29.88,SSW,193,3.6,5.8,90,0.00,,---,0.00,VWS V14.01,2013-09-02 01:11:00,
2013-09-01 21:16:00,76.1,73.0,29.88,South,186,6.3,6.3,90,0.00,,---,0.00,VWS V14.01,2013-09-02 01:16:00,
2013-09-01 21:21:00,76.1,73.0,29.88,SSW,213,4.0,5.8,90,0.00,,---,0.00,VWS V14.01,2013-09-02 01:21:00,
2013-09-01 21:26:00,75.9,72.8,29.88,SW,218,4.9,5.8,90,0.00,,---,0.00,VWS V14.01,2013-09-02 01:26:00,
2013-09-01 21:31:00,76.1,73.0,29.88,SW,229,4.0,4.0,90,0.00,,---,0.00,VWS V14.01,2013-09-02 01:31:00,
2013-09-01 21:36:00,76.1,73.0,29.88,South,186,4.0,4.0,90,0.00,,---,0.00,VWS V14.01,2013-09-02 01:36:00,
2013-09-01 21:41:00,76.1,73.0,29.88,SW,220,3.6,5.4,90,0.00,,---,0.00,VWS V14.01,2013-09-02 01:41:00,
2013-09-01 21:46:00,76.1,73.0,29.88,SSW,211,3.6,6.3,90,0.00,,---,0.00,VWS V14.01,2013-09-02 01:46:00,
2013-09-01 21:51:00,76.1,73.0,29.88,SW,223,2.7,7.6,90,0.00,,---,0.00,VWS V14.01,2013-09-02 01:51:00,
2013-09-01 21:56:00,76.1,73.0,29.88,SSW,212,5.4,5.8,90,0.00,,---,0.00,VWS V14.01,2013-09-02 01:56:00,
2013-09-01 22:01:00,76.1,73.3,29.88,SW,225,5.4,5.4,91,0.00,,---,0.00,VWS V14.01,2013-09-02 02:01:00,
2013-09-01 22:06:00,75.9,73.1,29.88,South,175,4.9,5.8,91,0.00,,---,0.00,VWS V14.01,2013-09-02 02:06:00,
2013-09-01 22:11:00,75.9,73.1,29.88,SSW,203,5.4,5.4,91,0.00,,---,0.00,VWS V14.01,2013-09-02 02:11:00,
2013-09-01 22:16:00,75.9,73.1,29.88,SW,214,6.7,8.1,91,0.00,,---,0.00,VWS V14.01,2013-09-02 02:16:00,
2013-09-01 22:21:00,75.7,72.9,29.88,SSW,196,8.1,8.1,91,0.00,,---,0.00,VWS V14.01,2013-09-02 02:21:00,
2013-09-01 22:26:00,75.7,72.9,29.88,SSW,213,6.7,6.7,91,0.00,,---,0.00,VWS V14.01,2013-09-02 02:26:00,
2013-09-01 22:31:00,75.7,72.9,29.88,South,185,7.2,7.2,91,0.00,,---,0.00,VWS V14.01,2013-09-02 02:31:00,
2013-09-01 22:36:00,75.7,72.9,29.88,SSW,195,6.3,6.3,91,0.00,,---,0.00,VWS V14.01,2013-09-02 02:36:00,
2013-09-01 22:41:00,75.7,72.9,29.88,SSW,206,5.8,6.3,91,0.00,,---,0.00,VWS V14.01,2013-09-02 02:41:00,
2013-09-01 22:46:00,75.7,72.9,29.88,SW,218,3.6,6.3,91,0.00,,---,0.00,VWS V14.01,2013-09-02 02:46:00,
2013-09-01 22:51:00,75.7,73.2,29.88,SSW,205,4.0,8.1,92,0.00,,---,0.00,VWS V14.01,2013-09-02 02:51:00,
2013-09-01 22:56:00,75.7,73.2,29.88,SSW,204,6.3,7.6,92,0.00,,---,0.00,VWS V14.01,2013-09-02 02:56:00,
2013-09-01 23:01:00,75.7,73.2,29.88,SW,218,4.0,5.4,92,0.00,,---,0.00,VWS V14.01,2013-09-02 03:01:00,
2013-09-01 23:06:00,75.7,73.2,29.88,SSW,206,8.1,8.1,92,0.00,,---,0.00,VWS V14.01,2013-09-02 03:06:00,
2013-09-01 23:11:00,75.6,73.1,29.88,SSW,194,6.7,6.7,92,0.00,,---,0.00,VWS V14.01,2013-09-02 03:11:00,
2013-09-01 23:16:00,75.6,73.1,29.85,South,178,4.9,4.9,92,0.00,,---,0.00,VWS V14.01,2013-09-02 03:16:00,
2013-09-01 23:21:00,75.6,73.1,29.85,South,179,4.0,5.8,92,0.00,,---,0.00,VWS V14.01,2013-09-02 03:21:00,
2013-09-01 23:26:00,75.6,73.1,29.85,SSW,212,4.9,4.9,92,0.00,,---,0.00,VWS V14.01,2013-09-02 03:26:00,
2013-09-01 23:31:00,75.6,73.1,29.85,South,171,5.4,6.3,92,0.00,,---,0.00,VWS V14.01,2013-09-02 03:31:00,
2013-09-01 23:36:00,75.6,73.1,29.85,WSW,256,3.6,5.8,92,0.00,,---,0.00,VWS V14.01,2013-09-02 03:36:00,
2013-09-01 23:41:00,75.6,73.1,29.85,SW,230,5.8,6.3,92,0.00,,---,0.00,VWS V14.01,2013-09-02 03:41:00,
2013-09-01 23:46:00,75.6,73.1,29.88,SW,227,5.4,5.4,92,0.00,,---,0.00,VWS V14.01,2013-09-02 03:46:00,
2013-09-01 23:51:00,75.6,73.1,29.88,SSW,209,5.8,5.8,92,0.00,,---,0.00,VWS V14.01,2013-09-02 03:51:00,
2013-09-01 23:56:00,75.6,73.1,29.88,SSW,205,5.8,7.2,92,0.00,,---,0.00,VWS V14.01,2013-09-02 03:56:00,